Location: East Arcadia
(34.1056°N, 118.0176°W)
Time: 08:17:38
(UTC+00:00)

DELTA 2 R/B (1) - Pass Details

Date: 05 December 2023
Orbit: 788 x 802 km, 39.6° (Epoch: 24 February)

Event Time Altitude Azimuth Distance (km) Brightness Sun altitude
Rises 02:15:27 0° 214° (SSW) 3,283 7.5 -18.8°
Reaches altitude 10° 02:18:12 10° 203° (SSW) 2,354 6.5 -19.4°
Maximum altitude 02:22:59 30° 144° (SE) 1,394 4.6 -20.4°
Enters shadow 02:23:59 28° 124° (SE) 1,450 4.6 -20.6°
